Hourly Weather Danilcevo

Today, 23 April, Friday

Time Temperature Precipitation Wind Pressure Humidity
00:00 +5°C° 0 mm 3 mps 747 mmHg 90%
01:00 +5°C° 0 mm 3 mps 747 mmHg 91%
02:00 +5°C° 0 mm 3 mps 747 mmHg 93%
03:00 +5°C° 0 mm 3 mps 747 mmHg 93%
04:00 +5°C° 0 mm 3 mps 747 mmHg 93%
05:00 +5°C° 0 mm 3 mps 747 mmHg 93%
06:00 +7°C° 0 mm 4 mps 747 mmHg 86%
07:00 +8°C° 0 mm 4 mps 747 mmHg 80%
08:00 +10°C° 0 mm 5 mps 747 mmHg 73%
09:00 +12°C° 0.1 mm 5 mps 747 mmHg 69%
10:00 +13°C° 0.1 mm 6 mps 746 mmHg 65%
11:00 +14°C° 0.1 mm 6 mps 746 mmHg 61%
12:00 +13°C° 0.5 mm 6 mps 746 mmHg 65%
13:00 +12°C° 0.5 mm 5 mps 746 mmHg 70%
14:00 +11°C° 0.5 mm 4 mps 746 mmHg 74%
15:00 +10°C° 0.7 mm 4 mps 746 mmHg 79%
16:00 +8°C° 0.7 mm 3 mps 746 mmHg 83%
17:00 +6°C° 0.7 mm 2 mps 747 mmHg 88%
18:00 +6°C° 1 mm 2 mps 747 mmHg 89%
19:00 +6°C° 1 mm 1 mps 747 mmHg 91%
20:00 +6°C° 1 mm 1 mps 747 mmHg 92%
21:00 +5°C° 0 mm 1 mps 746 mmHg 93%
22:00 +5°C° 0 mm 1 mps 746 mmHg 94%
23:00 +5°C° 0 mm 1 mps 746 mmHg 94%

Tomorrow, 24 April, Saturday

Time Temperature Precipitation Wind Pressure Humidity
00:00 +5°C° 0.9 mm 1 mps 745 mmHg 95%
01:00 +5°C° 0.9 mm 1 mps 745 mmHg 95%
02:00 +5°C° 0.9 mm 1 mps 745 mmHg 95%
03:00 +5°C° 1.2 mm 1 mps 744 mmHg 95%
04:00 +5°C° 1.2 mm 1 mps 744 mmHg 96%
05:00 +5°C° 1.2 mm 1 mps 743 mmHg 96%
06:00 +5°C° 1 mm 1 mps 743 mmHg 95%
07:00 +5°C° 1 mm 1 mps 743 mmHg 95%
08:00 +5°C° 1 mm 1 mps 743 mmHg 94%
09:00 +5°C° 0.4 mm 1 mps 743 mmHg 93%
10:00 +4°C° 0.4 mm 2 mps 743 mmHg 91%
11:00 +5°C° 0.4 mm 2 mps 742 mmHg 90%
12:00 +5°C° 0.2 mm 2 mps 742 mmHg 85%
13:00 +6°C° 0.2 mm 2 mps 742 mmHg 80%
14:00 +6°C° 0.2 mm 2 mps 742 mmHg 76%
15:00 +6°C° 0.2 mm 2 mps 742 mmHg 78%
16:00 +6°C° 0.2 mm 2 mps 742 mmHg 80%
17:00 +6°C° 0.2 mm 2 mps 742 mmHg 83%
18:00 +5°C° 0.2 mm 2 mps 742 mmHg 84%
19:00 +5°C° 0.2 mm 2 mps 742 mmHg 85%
20:00 +4°C° 0.2 mm 2 mps 742 mmHg 87%
21:00 +2°C° 0 mm 3 mps 742 mmHg 86%
22:00 +2°C° 0 mm 3 mps 742 mmHg 85%
23:00 0°C° 0 mm 4 mps 742 mmHg 85%

Day after tomorrow, 25 April, Sunday

Time Temperature Precipitation Wind Pressure Humidity
00:00 0°C° 0 mm 4 mps 742 mmHg 85%
01:00 -1°C° 0 mm 4 mps 742 mmHg 85%
02:00 -1°C° 0 mm 4 mps 742 mmHg 85%
03:00 -1°C° 0 mm 4 mps 742 mmHg 85%
04:00 -2°C° 0 mm 4 mps 742 mmHg 86%
05:00 -2°C° 0 mm 4 mps 742 mmHg 86%
06:00 -1°C° 0 mm 4 mps 742 mmHg 82%
07:00 0°C° 0 mm 5 mps 743 mmHg 77%
08:00 +2°C° 0 mm 5 mps 743 mmHg 72%
09:00 +3°C° 0 mm 5 mps 743 mmHg 64%
10:00 +3°C° 0 mm 5 mps 743 mmHg 56%
11:00 +5°C° 0 mm 5 mps 743 mmHg 48%
12:00 +6°C° 0 mm 5 mps 743 mmHg 45%
13:00 +6°C° 0 mm 5 mps 743 mmHg 42%
14:00 +7°C° 0 mm 5 mps 743 mmHg 39%
15:00 +6°C° 0 mm 5 mps 743 mmHg 42%
16:00 +6°C° 0 mm 4 mps 743 mmHg 45%
17:00 +6°C° 0 mm 4 mps 743 mmHg 48%
18:00 +4°C° 0 mm 3 mps 743 mmHg 57%
19:00 +3°C° 0 mm 3 mps 743 mmHg 65%
20:00 +2°C° 0 mm 2 mps 744 mmHg 73%
21:00 +1°C° 0 mm 2 mps 744 mmHg 76%
22:00 +1°C° 0 mm 2 mps 744 mmHg 79%
23:00 -1°C° 0 mm 2 mps 744 mmHg 82%

26 April, Monday

Time Temperature Precipitation Wind Pressure Humidity
00:00 -1°C° 0 mm 2 mps 744 mmHg 84%
01:00 -1°C° 0 mm 2 mps 744 mmHg 85%
02:00 -2°C° 0 mm 2 mps 744 mmHg 86%
03:00 -2°C° 0 mm 2 mps 744 mmHg 85%
04:00 -1°C° 0 mm 2 mps 744 mmHg 84%
05:00 -1°C° 0 mm 2 mps 744 mmHg 83%
06:00 0°C° 0 mm 3 mps 744 mmHg 75%
07:00 +2°C° 0 mm 3 mps 744 mmHg 67%
08:00 +4°C° 0 mm 4 mps 744 mmHg 60%
09:00 +5°C° 0 mm 4 mps 744 mmHg 56%
10:00 +5°C° 0 mm 4 mps 744 mmHg 52%
11:00 +6°C° 0 mm 4 mps 744 mmHg 47%
12:00 +6°C° 0 mm 4 mps 744 mmHg 47%
13:00 +6°C° 0 mm 4 mps 744 mmHg 47%
14:00 +6°C° 0 mm 5 mps 744 mmHg 47%
15:00 +6°C° 0 mm 4 mps 744 mmHg 50%
16:00 +5°C° 0 mm 4 mps 744 mmHg 53%
17:00 +5°C° 0 mm 3 mps 744 mmHg 56%
18:00 +3°C° 0 mm 3 mps 744 mmHg 63%
19:00 +3°C° 0 mm 2 mps 744 mmHg 70%
20:00 +1°C° 0 mm 2 mps 744 mmHg 78%
21:00 -1°C° 0 mm 2 mps 744 mmHg 80%
22:00 -1°C° 0 mm 2 mps 744 mmHg 82%
23:00 -2°C° 0 mm 2 mps 744 mmHg 85%

27 April, Tuesday

Time Temperature Precipitation Wind Pressure Humidity
00:00 -2°C° 0 mm 2 mps 744 mmHg 85%
01:00 -2°C° 0 mm 2 mps 744 mmHg 85%
02:00 -2°C° 0 mm 2 mps 744 mmHg 86%
03:00 0°C° 0 mm 1 mps 744 mmHg 84%
04:00 0°C° 0 mm 1 mps 744 mmHg 82%
05:00 0°C° 0 mm 1 mps 744 mmHg 80%
06:00 +1°C° 0 mm 2 mps 744 mmHg 71%
07:00 +3°C° 0 mm 2 mps 744 mmHg 62%
08:00 +4°C° 0 mm 2 mps 744 mmHg 53%
09:00 +4°C° 0 mm 3 mps 743 mmHg 48%
10:00 +5°C° 0 mm 3 mps 743 mmHg 44%
11:00 +7°C° 0 mm 3 mps 743 mmHg 39%
12:00 +8°C° 0 mm 3 mps 743 mmHg 37%
13:00 +8°C° 0 mm 3 mps 743 mmHg 35%
14:00 +8°C° 0 mm 3 mps 743 mmHg 33%
15:00 +8°C° 0 mm 3 mps 743 mmHg 37%
16:00 +8°C° 0 mm 3 mps 743 mmHg 40%
17:00 +7°C° 0 mm 2 mps 742 mmHg 43%
18:00 +6°C° 0 mm 2 mps 743 mmHg 50%
19:00 +5°C° 0 mm 2 mps 743 mmHg 57%
20:00 +3°C° 0 mm 2 mps 743 mmHg 64%
21:00 +3°C° 0 mm 2 mps 743 mmHg 70%
22:00 +2°C° 0 mm 2 mps 743 mmHg 75%
23:00 +2°C° 0 mm 2 mps 744 mmHg 81%

28 April, Wednesday

Time Temperature Precipitation Wind Pressure Humidity
00:00 0°C° 0 mm 3 mps 744 mmHg 85%
01:00 0°C° 0 mm 3 mps 744 mmHg 89%
02:00 -1°C° 0 mm 3 mps 744 mmHg 93%
03:00 -1°C° 0 mm 3 mps 745 mmHg 93%
04:00 0°C° 0 mm 3 mps 745 mmHg 92%
05:00 0°C° 0 mm 3 mps 745 mmHg 92%
06:00 0°C° 0 mm 3 mps 745 mmHg 89%
07:00 +1°C° 0 mm 3 mps 746 mmHg 86%
08:00 +2°C° 0 mm 3 mps 746 mmHg 83%
09:00 +3°C° 0.1 mm 3 mps 746 mmHg 77%
10:00 +4°C° 0.1 mm 3 mps 746 mmHg 71%
11:00 +5°C° 0.1 mm 3 mps 747 mmHg 65%
12:00 +5°C° 0 mm 3 mps 747 mmHg 64%
13:00 +5°C° 0 mm 3 mps 747 mmHg 62%
14:00 +5°C° 0 mm 3 mps 747 mmHg 61%
15:00 +7°C° 0 mm 3 mps 747 mmHg 61%
16:00 +7°C° 0 mm 3 mps 747 mmHg 62%
17:00 +7°C° 0 mm 2 mps 747 mmHg 63%
18:00 +6°C° 0 mm 2 mps 747 mmHg 68%
19:00 +4°C° 0 mm 2 mps 747 mmHg 74%
20:00 +3°C° 0 mm 2 mps 747 mmHg 80%
21:00 +3°C° 0 mm 2 mps 747 mmHg 82%
22:00 +3°C° 0 mm 2 mps 747 mmHg 84%
23:00 +3°C° 0 mm 2 mps 747 mmHg 86%
Show more